Weather History for KAEL - February, 2014

Change the Weather History Date:

Sunday, February 23, 2014

  Actual Average Record
Temperature  
Mean Temperature 8 °F -  
Max Temperature 15 °F 29 °F 55 °F (2002)
Min Temperature 0 °F 16 °F -13 °F (2015)
Degree Days  
Heating Degree Days 58    
Moisture  
Dew Point 3 °F    
Average Humidity 77    
Maximum Humidity 92    
Minimum Humidity 67    
Precipitation  
Precipitation 0.00 in - - ()
Sea Level Pressure  
Sea Level Pressure 30.22 in    
Wind  
Wind Speed 8 mph (WNW)    
Max Wind Speed 13 mph    
Max Gust Speed 21 mph    
Visibility 10 miles    
Events      
Averages and records for this station are not official NWS values.
T = Trace of Precipitation, MM = Missing Value Source: NWS Daily Summary

Daily Weather History Graph

Daily Weather History Graph

Search for Another Location

Airport or City:

Trip Planner

Search our weather history database for the weather conditions in past years. The results will help you decide how hot, cold, wet, or windy it might be!

Date:

Astronomy

Feb. 23, 2014 Rise Set
Actual Time 6:59 AM CST 5:54 PM CST
Civil Twilight 6:30 AM CST 6:23 PM CST
Nautical Twilight 5:57 AM CST 6:56 PM CST
Astronomical Twilight 5:24 AM CST 7:30 PM CST
Moon 2:04 AM CST (2/23) 11:51 AM CST (2/23)
Length of Visible Light 11h 52m
Length of Day
10h 54m
Last Quarter, 38% of the Moon is Illuminated
Feb 23
Last Quarter
Mar 1
New
Mar 8
First Quarter
Mar 16
Full
Mar 23
Last Quarter

Hourly Weather History & Observations

Time (CST) Temp. Windchill Dew Point Humidity Pressure Visibility Wind Dir Wind Speed Gust Speed Precip Events Conditions
12:12 AM 8.6 °F -4.7 °F 3.2 °F 79% 30.13 in 10.0 mi WNW 9.2 mph - N/A   Clear
12:32 AM 8.6 °F -1.3 °F 3.2 °F 79% 30.13 in 10.0 mi WNW 5.8 mph - N/A   Clear
12:52 AM 8.6 °F -2.6 °F 3.2 °F 79% 30.13 in 10.0 mi WNW 6.9 mph - N/A   Clear
1:12 AM 8.6 °F -1.3 °F 3.2 °F 79% 30.14 in 10.0 mi NW 5.8 mph - N/A   Clear
1:32 AM 10.4 °F -3.3 °F 3.2 °F 73% 30.14 in 10.0 mi NW 10.4 mph 16.1 mph N/A   Clear
1:52 AM 10.4 °F -2.4 °F 3.2 °F 73% 30.14 in 10.0 mi NW 9.2 mph 19.6 mph N/A   Clear
2:12 AM 8.6 °F -6.3 °F 3.2 °F 79% 30.16 in 10.0 mi NW 11.5 mph 17.3 mph N/A   Clear
2:32 AM 8.6 °F -4.7 °F 1.4 °F 73% 30.16 in 10.0 mi NW 9.2 mph 16.1 mph N/A   Clear
2:52 AM 8.6 °F -3.7 °F 1.4 °F 73% 30.17 in 10.0 mi NW 8.1 mph - N/A   Clear
3:12 AM 6.8 °F -5.9 °F 1.4 °F 79% 30.16 in 10.0 mi NW 8.1 mph - N/A   Clear
3:32 AM 6.8 °F -3.5 °F 1.4 °F 79% 30.16 in 10.0 mi NW 5.8 mph - N/A   Clear
3:52 AM 5.0 °F -4.1 °F -0.4 °F 78% 30.17 in 10.0 mi WNW 4.6 mph - N/A   Clear
4:12 AM 3.2 °F -6.2 °F -2.2 °F 78% 30.17 in 10.0 mi West 4.6 mph - N/A   Clear
4:32 AM 3.2 °F -6.2 °F -2.2 °F 78% 30.18 in 10.0 mi West 4.6 mph - N/A   Clear
4:52 AM 1.4 °F -6.2 °F -2.2 °F 85% 30.19 in 10.0 mi West 3.5 mph - N/A   Clear
5:12 AM 3.2 °F -7.8 °F -2.2 °F 78% 30.19 in 10.0 mi WNW 5.8 mph - N/A   Clear
5:31 AM 3.2 °F -6.2 °F -2.2 °F 78% 30.18 in 10.0 mi WNW 4.6 mph - N/A   Clear
5:52 AM 3.2 °F -7.8 °F -2.2 °F 78% 30.18 in 10.0 mi WNW 5.8 mph - N/A   Clear
6:12 AM 3.2 °F - -2.2 °F 78% 30.18 in 10.0 mi Calm Calm - N/A   Clear
6:31 AM 1.4 °F -6.2 °F -2.2 °F 85% 30.19 in 10.0 mi WSW 3.5 mph - N/A   Clear
6:52 AM -0.4 °F -8.3 °F -4.0 °F 85% 30.19 in 10.0 mi West 3.5 mph - N/A   Clear
7:12 AM -0.4 °F -12.0 °F -5.8 °F 78% 30.21 in 10.0 mi West 5.8 mph - N/A   Clear
7:31 AM 1.4 °F -9.9 °F -2.2 °F 85% 30.22 in 10.0 mi West 5.8 mph - N/A   Clear
7:52 AM 3.2 °F -7.8 °F -0.4 °F 85% 30.23 in 10.0 mi West 5.8 mph - N/A   Clear
8:12 AM 3.2 °F -9.1 °F -0.4 °F 85% 30.23 in 10.0 mi West 6.9 mph - N/A   Clear
8:31 AM 5.0 °F -6.9 °F -0.4 °F 78% 30.23 in 10.0 mi West 6.9 mph - N/A   Clear
8:52 AM 6.8 °F -5.9 °F 1.4 °F 79% 30.23 in 10.0 mi West 8.1 mph - N/A   Clear
9:12 AM 6.8 °F -7.8 °F 1.4 °F 79% 30.23 in 10.0 mi West 10.4 mph - N/A   Clear
9:31 AM 8.6 °F -4.7 °F 1.4 °F 73% 30.24 in 10.0 mi WNW 9.2 mph - N/A   Clear
9:52 AM 8.6 °F -6.3 °F 1.4 °F 73% 30.24 in 10.0 mi WNW 11.5 mph 17.3 mph N/A   Clear
10:12 AM 8.6 °F -7.0 °F 1.4 °F 73% 30.24 in 10.0 mi WNW 12.7 mph 19.6 mph N/A   Clear
10:31 AM 8.6 °F -4.7 °F 3.2 °F 79% 30.25 in 10.0 mi WNW 9.2 mph 17.3 mph N/A   Clear
10:52 AM 10.4 °F -4.1 °F 3.2 °F 73% 30.25 in 10.0 mi WNW 11.5 mph 17.3 mph N/A   Clear
11:12 AM 10.4 °F -4.1 °F 3.2 °F 73% 30.25 in 10.0 mi WNW 11.5 mph 16.1 mph N/A   Clear
11:32 AM 10.4 °F -4.8 °F 3.2 °F 73% 30.25 in 10.0 mi WNW 12.7 mph 20.7 mph N/A   Clear
11:52 AM 10.4 °F -3.3 °F 3.2 °F 73% 30.25 in 10.0 mi WNW 10.4 mph 18.4 mph N/A   Clear
12:12 PM 12.2 °F 0.7 °F 3.2 °F 67% 30.25 in 10.0 mi WNW 8.1 mph 18.4 mph N/A   Clear
12:32 PM 12.2 °F -1.8 °F 3.2 °F 67% 30.25 in 10.0 mi WNW 11.5 mph 19.6 mph N/A   Clear
12:52 PM 12.2 °F -1.8 °F 3.2 °F 67% 30.24 in 10.0 mi WNW 11.5 mph 18.4 mph N/A   Clear
1:12 PM 12.2 °F -1.0 °F 3.2 °F 67% 30.24 in 10.0 mi WNW 10.4 mph 19.6 mph N/A   Clear
1:32 PM 12.2 °F -1.0 °F 3.2 °F 67% 30.24 in 10.0 mi WNW 10.4 mph 18.4 mph N/A   Clear
1:52 PM 12.2 °F -1.8 °F 3.2 °F 67% 30.24 in 10.0 mi WNW 11.5 mph 18.4 mph N/A   Clear
2:12 PM 14.0 °F 2.0 °F 5.0 °F 67% 30.24 in 10.0 mi West 9.2 mph 18.4 mph N/A   Clear
2:32 PM 15.8 °F 4.2 °F 6.8 °F 68% 30.25 in 10.0 mi WNW 9.2 mph 16.1 mph N/A   Clear
2:52 PM 14.0 °F 1.2 °F 5.0 °F 67% 30.24 in 10.0 mi WNW 10.4 mph 19.6 mph N/A   Clear
3:12 PM 15.8 °F 3.4 °F 6.8 °F 68% 30.24 in 10.0 mi West 10.4 mph 16.1 mph N/A   Clear
3:32 PM 15.8 °F 2.1 °F 6.8 °F 68% 30.24 in 10.0 mi West 12.7 mph 17.3 mph N/A   Clear
3:52 PM 15.8 °F 3.4 °F 6.8 °F 68% 30.24 in 10.0 mi West 10.4 mph - N/A   Clear
4:11 PM 15.8 °F 4.2 °F 6.8 °F 68% 30.24 in 10.0 mi West 9.2 mph 16.1 mph N/A   Clear
4:32 PM 15.8 °F 6.1 °F 6.8 °F 68% 30.25 in 10.0 mi West 6.9 mph - N/A   Clear
4:52 PM 15.8 °F 5.1 °F 8.6 °F 73% 30.24 in 10.0 mi West 8.1 mph - N/A   Clear
5:11 PM 15.8 °F 7.2 °F 8.6 °F 73% 30.24 in 10.0 mi West 5.8 mph - N/A   Clear
5:32 PM 15.8 °F 7.2 °F 8.6 °F 73% 30.24 in 10.0 mi WNW 5.8 mph - N/A   Clear
5:51 PM 12.2 °F 4.3 °F 8.6 °F 85% 30.24 in 10.0 mi West 4.6 mph - N/A   Clear
6:12 PM 10.4 °F 2.2 °F 6.8 °F 85% 30.25 in 10.0 mi West 4.6 mph - N/A   Clear
6:32 PM 10.4 °F -0.4 °F 6.8 °F 85% 30.25 in 10.0 mi West 6.9 mph - N/A   Clear
6:52 PM 10.4 °F 2.2 °F 6.8 °F 85% 30.25 in 10.0 mi West 4.6 mph - N/A   Clear
7:11 PM 10.4 °F 2.2 °F 6.8 °F 85% 30.26 in 10.0 mi West 4.6 mph - N/A   Clear
7:32 PM 8.6 °F -2.6 °F 6.8 °F 92% 30.26 in 10.0 mi West 6.9 mph - N/A   Clear
7:51 PM 10.4 °F -0.4 °F 6.8 °F 85% 30.26 in 10.0 mi West 6.9 mph - N/A   Clear
8:12 PM 12.2 °F 2.9 °F 6.8 °F 79% 30.25 in 10.0 mi West 5.8 mph - N/A   Clear
8:31 PM 10.4 °F -0.4 °F 6.8 °F 85% 30.25 in 10.0 mi West 6.9 mph - N/A   Clear
8:52 PM 10.4 °F 0.8 °F 6.8 °F 85% 30.25 in 10.0 mi West 5.8 mph - N/A   Clear
9:12 PM 10.4 °F 0.8 °F 6.8 °F 85% 30.26 in 10.0 mi West 5.8 mph - N/A   Clear
9:31 PM 10.4 °F 0.8 °F 6.8 °F 85% 30.26 in 10.0 mi WNW 5.8 mph - N/A   Clear
9:52 PM 10.4 °F 0.8 °F 6.8 °F 85% 30.26 in 10.0 mi WNW 5.8 mph - N/A   Clear
10:12 PM 10.4 °F 0.8 °F 6.8 °F 85% 30.27 in 10.0 mi WNW 5.8 mph - N/A   Clear
10:31 PM 10.4 °F 0.8 °F 6.8 °F 85% 30.27 in 10.0 mi WNW 5.8 mph - N/A   Clear
10:52 PM 10.4 °F -0.4 °F 5.0 °F 79% 30.27 in 10.0 mi WNW 6.9 mph - N/A   Clear
11:12 PM 10.4 °F 0.8 °F 5.0 °F 79% 30.27 in 10.0 mi WNW 5.8 mph - N/A   Clear
11:31 PM 10.4 °F 2.2 °F 5.0 °F 79% 30.27 in 10.0 mi NW 4.6 mph - N/A   Clear
11:52 PM 10.4 °F -1.5 °F 3.2 °F 73% 30.27 in 10.0 mi WNW 8.1 mph - N/A   Clear